{"data":{"norad_id":43011,"epoch":"2026-09-20T04:42:13.453056Z","epoch_age_seconds":78121,"freshness":"FRESH","line1":"1 43011U 17072B   26263.19598904  .00000125  00000+0  67983-4 0  9994","line2":"2 43011  98.9542 284.2376 0008975 235.5652 124.4681 14.28846453460929","mean_motion":14.28846453,"eccentricity":0.0008975,"inclination_deg":98.9542,"raan_deg":284.2376,"arg_perigee_deg":235.5652,"mean_anomaly_deg":124.4681,"bstar":6.7983e-5,"rev_number":46092,"period_min":100.78059801153,"perigee_km":789.15084189621,"apogee_km":802.02768053509,"semimajor_km":7173.7262612156,"source":"CELESTRAK","updated_at":"2026-09-20T09:00:14.263876Z"}}